Hourly Data Report for September 17, 2017

All times are specified in Local Standard Time (LST). Add 1 hour to adjust for Daylight Saving Time where and when it is observed.

ARVIAT A
NUNAVUT

61°05'38.000" N
94°04'18.000" W
10.40 m
2300427
71174
YEK

Related Data

No related data is available for this station

Download Data

Hourly Data (September 2017)
Hourly Data Report for September 17, 2017
Temp Definition
°C
Dew Point Temp Definition
°C
Rel Hum Definition
%
Wind Dir Definition
10's deg

Wind Spd Definition
km/h
Visibility Definition
km
Stn Press Definition
kPa
Hmdx Definition


Wind Chill Definition


Weather Definition


TIME
00:00 Legend Double Dagger 5.3 5.2 99 19 11 16.1 102.10     LegendNANA
01:00 Legend Double Dagger 5.2 5.1 99 20 9 16.1 102.11     LegendNANA
02:00 Legend Double Dagger 5.2 5.2 100 17 11 16.1 102.12     LegendNANA
03:00 Legend Double Dagger 6.1 6.1 100 17 13 16.1 102.13     LegendNANA
04:00 Legend Double Dagger 6.2 5.9 98 14 11 16.1 102.09     LegendNANA
05:00 Legend Double Dagger 5.5 5.4 99 15 11 16.1 102.08     LegendNANA
06:00 Legend Double Dagger 5.3 5.2 99 12 13 16.1 102.07     LegendNANA
07:00 Legend Double Dagger 4.4 4.3 99 12 11 0.8 102.02     Fog
08:00 Legend Double Dagger 5.5 5.5 100 11 11 6.4 102.00     Fog
09:00 Legend Double Dagger 5.5 5.4 99 14 18 3.2 102.01     Rain,Fog
10:00 Legend Double Dagger 5.6 5.5 99 15 18 3.6 101.98     Fog
11:00 Legend Double Dagger 5.7 5.6 99 14 21 9.7 101.94     Fog
12:00 Legend Double Dagger 6.0 5.5 96 14 17 4.8 101.90     Fog
13:00 Legend Double Dagger 5.8 5.1 95 14 15 4.8 101.89     Fog
14:00 Legend Double Dagger 6.4 5.0 91 15 18 11.3 101.86     LegendNANA
15:00 Legend Double Dagger 6.2 5.3 94 14 17 11.3 101.81     LegendNANA
16:00 Legend Double Dagger 6.2 4.9 91 13 15 16.1 101.76     LegendNANA
17:00 Legend Double Dagger 5.8 5.4 97 12 17 3.2 101.71     Rain,Fog
18:00 Legend Double Dagger 5.2 4.8 97 11 18 4.8 101.70     Fog
19:00 Legend Double Dagger 5.2 4.6 96 13 18 16.1 101.66     LegendNANA
20:00 Legend Double Dagger 5.1 4.7 97 12 18 8.1 101.64     Fog
21:00 Legend Double Dagger 4.6 4.3 98 12 15 6.4 101.61     Fog
22:00 Legend Double Dagger 4.6 4.5 99 13 17 12.9 101.59     LegendNANA
23:00 Legend Double Dagger 4.3 4.0 98 13 15 14.5 101.55     LegendNANA

Notes on Data Quality.

Legend

  • E = Estimated
  • M = Missing
  • NA = Not Available
  • ‡ = Partner data that is not subject to review by the National Climate Archives
Date modified: